カタログに戻る

STARLINK-31883

運用中通信VLEO
NORAD 60020·PAYLOAD·🇺🇸 United States

打ち上げ Jun 8, 2024 から Cape Canaveral Space Force Station

Loading…

次のパス (今後24時間)

TLE

最新Source: CelesTrak SupGP

元期: Sep 14, 2026, 22:25 UTC

1 60020C 24111E   26257.93451389  .00046910  00000+0  13862-2 0  2579
2 60020  53.1583 275.9526 0001218  88.5324  29.8536 15.34362692    18

AllMySatでSTARLINK-31883をリアルタイム追跡

Download on the App Store